Location: アルンシュタイン
(50.0000°N, 10.0000°E)
Time: 13:01:04
(UTC+02:00)

Explorer 7 - Visible Passes

Search period start: 19 May 2025 00:00
Search period end: 29 May 2025 00:00
Orbit: 446 x 574 km, 50.3° (Epoch: 18 May)

Date Brightness Start Highest point End Pass type
(mag) Time Alt. Az. Time Alt. Az. Time Alt. Az.
19 May 7.5 04:34:30 10° SW 04:38:00 38° SSE 04:41:41 10° E visible
20 May 7.3 04:16:26 14° SW 04:19:25 40° SSE 04:23:06 10° E visible
21 May 7.2 03:58:20 17° SW 04:00:49 42° SSE 04:04:31 10° E visible
22 May 7.1 03:40:10 22° SW 03:42:12 44° SSE 03:45:54 10° E visible
23 May 6.9 03:21:56 27° SSW 03:23:34 46° SSE 03:27:16 10° E visible
24 May 6.8 03:03:40 33° SSW 03:04:55 48° SSE 03:08:37 10° E visible
24 May 6.7 04:39:58 10° W 04:43:43 86° N 04:47:42 10° E visible
25 May 6.7 02:45:18 39° SSW 02:46:15 51° SSE 02:49:57 10° E visible
25 May 6.6 04:21:20 10° W 04:25:05 85° N 04:29:01 10° E visible
26 May 6.6 02:26:53 45° SSW 02:27:34 53° SSE 02:31:17 10° E visible
26 May 6.6 04:02:40 10° W 04:06:25 85° N 04:10:19 10° E visible
27 May 6.5 02:08:24 50° S 02:08:53 55° SSE 02:12:34 10° E visible
27 May 6.6 03:44:01 10° W 03:47:43 84° N 03:51:37 10° E visible
28 May 6.5 01:49:48 54° S 01:50:10 58° SSE 01:53:52 10° E visible
28 May 6.6 03:25:20 10° W 03:29:02 84° N 03:32:53 10° E visible
